DW3651 Weather Reports


time (UTC)temp
C
wind
direction
speed
KPH
gust
KPH
rain 1hr
cm
rain 24hr
cm
rain mn
cm
humidity
%
barometer
mb
20260502200027 21 123 0.0 1.6 0.00 0.00 0.00 61 1013.0
20260502200015 21 123 0.0 1.6 0.00 0.00 0.00 61 1012.7
20260502195510 21 123 0.0 4.8 0.00 0.00 0.00 61 1013.0
20260502195006 21 123 0.0 6.4 0.00 0.00 0.00 61 1013.0
20260502194524 20 123 3.2 9.7 0.00 0.00 0.00 61 1012.9
20260502194007 21 114 3.2 9.7 0.00 0.00 0.00 61 1012.8
20260502193511 21 115 4.8 9.7 0.00 0.00 0.00 60 1012.7
20260502193024 21 110 1.6 4.8 0.00 0.00 0.00 59 1012.7
20260502193009 21 110 1.6 4.8 0.00 0.00 0.00 59 1012.6
20260502192513 21 344 0.0 4.8 0.00 0.00 0.00 59 1012.6
20260502192003 21 344 1.6 8.0 0.00 0.00 0.00 58 1012.5
20260502191519 21 337 1.6 8.0 0.00 0.00 0.00 57 1012.4
20260502191512 21 337 1.6 8.0 0.00 0.00 0.00 57 1012.5
20260502191007 22 324 4.8 8.0 0.00 0.00 0.00 57 1012.5
20260502190507 22 335 4.8 6.4 0.00 0.00 0.00 56 1012.5
20260502190018 22 315 3.2 6.4 0.00 0.00 0.00 55 1012.4
20260502190016 22 315 3.2 6.4 0.00 0.00 0.00 55 1012.5
20260502185509 22 340 1.6 3.2 0.00 0.00 0.00 55 1012.5
20260502185007 22 340 0.0 4.8 0.00 0.00 0.00 55 1012.5
20260502184527 22 340 1.6 6.4 0.00 0.00 0.00 55 1012.3
20260502184521 22 340 1.6 6.4 0.00 0.00 0.00 55 1012.5
20260502184007 22 298 1.6 8.0 0.00 0.00 0.00 55 1012.5
20260502183507 22 302 3.2 11.3 0.00 0.00 0.00 54 1012.5
20260502183027 22 309 6.4 11.3 0.00 0.00 0.00 54 1012.4
20260502183023 22 309 6.4 11.3 0.00 0.00 0.00 54 1012.3
20260502182509 22 344 1.6 8.0 0.00 0.00 0.00 54 1012.4
20260502182009 22 26 1.6 12.9 0.00 0.00 0.00 53 1012.5
20260502181525 22 234 3.2 12.9 0.00 0.00 0.00 53 1012.3
20260502181012 22 291 1.6 12.9 0.00 0.00 0.00 53 1012.5
20260502180503 23 308 6.4 12.9 0.00 0.00 0.00 53 1012.5
20260502170512 23 275 1.6 16.1 0.00 0.00 0.00 51 1012.8
20260502164006 23 169 3.2 16.1 0.00 0.00 0.00 51 1013.1
20260502163506 23 192 4.8 17.7 0.00 0.00 0.00 52 1013.3
20260502163023 23 225 11.3 20.9 0.00 0.00 0.00 51 1013.2
20260502163020 23 225 11.3 20.9 0.00 0.00 0.00 51 1013.3
20260502162508 23 246 8.0 22.5 0.00 0.00 0.00 50 1013.4
20260502162010 23 254 9.7 22.5 0.00 0.00 0.00 50 1013.4
20260502161524 23 260 4.8 16.1 0.00 0.00 0.00 50 1013.5
20260502161522 23 260 4.8 16.1 0.00 0.00 0.00 50 1013.4
20260502161009 23 271 6.4 12.9 0.00 0.00 0.00 50 1013.5
20260502160513 23 272 6.4 19.3 0.00 0.00 0.00 51 1013.6
20260502152003 23 273 6.4 17.7 0.00 0.00 0.00 51 1014.1
20260502151530 23 275 8.0 17.7 0.00 0.00 0.00 51 1014.0
20260502151503 23 275 8.0 17.7 0.00 0.00 0.00 51 1014.2
20260502151002 23 246 9.7 17.7 0.00 0.00 0.00 51 1014.3
20260502150502 23 167 11.3 20.9 0.00 0.00 0.00 50 1014.3
20260502130507 22 207 11.3 29.0 0.00 0.00 0.00 50 1015.4
20260502123507 22 215 16.1 30.6 0.00 0.00 0.00 50 1015.7
20260502123009 22 163 11.3 29.0 0.00 0.00 0.00 50 1015.7
20260502123007 22 163 11.3 29.0 0.00 0.00 0.00 50 1015.3
20260502122507 22 123 14.5 27.4 0.00 0.00 0.00 50 1015.8
20260502122010 22 114 14.5 27.4 0.00 0.00 0.00 50 1015.8
20260502121516 22 283 12.9 27.4 0.00 0.00 0.00 50 1015.5
20260502121514 22 283 12.9 27.4 0.00 0.00 0.00 50 1015.8
20260502121008 22 179 6.4 30.6 0.00 0.00 0.00 51 1015.9
20260502120507 22 156 17.7 32.2 0.00 0.00 0.00 51 1016.0
20260502115510 21 204 20.9 30.6 0.00 0.00 0.00 51 1016.0
20260502115004 22 227 17.7 29.0 0.00 0.00 0.00 51 1016.1
20260502114522 22 180 16.1 25.7 0.00 0.00 0.00 50 1015.7
20260502114510 22 180 16.1 25.7 0.00 0.00 0.00 50 1016.0
20260502114004 22 244 12.9 24.1 0.00 0.00 0.00 50 1016.1
20260502113504 21 184 9.7 24.1 0.00 0.00 0.00 50 1016.1
20260502113026 21 202 14.5 25.7 0.00 0.00 0.00 50 1015.7
20260502113005 21 169 14.5 25.7 0.00 0.00 0.00 50 1016.1
20260502112504 21 210 6.4 25.7 0.00 0.00 0.00 50 1016.2
20260502112005 21 201 12.9 30.6 0.00 0.00 0.00 50 1016.3
20260502111514 21 148 12.9 30.6 0.00 0.00 0.00 50 1016.3
20260502111512 21 148 12.9 30.6 0.00 0.00 0.00 50 1015.9
20260502111008 21 216 9.7 22.5 0.00 0.00 0.00 49 1016.4
20260502110507 21 181 11.3 22.5 0.00 0.00 0.00 49 1016.4
20260502110015 21 225 12.9 20.9 0.00 0.00 0.00 48 1016.0
20260502110012 21 225 12.9 20.9 0.00 0.00 0.00 48 1016.4
20260502105507 21 202 9.7 22.5 0.00 0.00 0.00 47 1016.4
20260502105005 21 128 11.3 22.5 0.00 0.00 0.00 47 1016.5
20260502104524 21 171 9.7 24.1 0.00 0.00 0.00 47 1016.4
20260502104006 21 170 12.9 22.5 0.00 0.00 0.00 46 1016.5
20260502103506 21 222 9.7 24.1 0.00 0.00 0.00 46 1016.5
20260502103016 21 167 14.5 24.1 0.00 0.00 0.00 46 1016.5
20260502102506 21 172 11.3 24.1 0.00 0.00 0.00 46 1016.4
20260502102007 21 205 16.1 24.1 0.00 0.00 0.00 44 1016.4
20260502101520 21 179 8.0 17.7 0.00 0.00 0.00 44 1016.2
20260502101509 21 155 8.0 17.7 0.00 0.00 0.00 44 1016.4
20260502101007 21 166 4.8 22.5 0.00 0.00 0.00 46 1016.5
20260502100507 21 212 6.4 24.1 0.00 0.00 0.00 47 1016.5
20260502091524 20 200 11.3 22.5 0.00 0.00 0.00 48 1016.5
20260502091519 20 200 11.3 22.5 0.00 0.00 0.00 48 1016.8
20260502091007 20 168 8.0 22.5 0.00 0.00 0.00 48 1016.8
20260502090503 20 179 9.7 19.3 0.00 0.00 0.00 48 1016.9
20260502071518 17 167 8.0 17.7 0.00 0.00 0.00 48 1017.1
20260502071008 17 165 9.7 17.7 0.00 0.00 0.00 48 1017.2
20260502070509 17 145 8.0 19.3 0.00 0.00 0.00 49 1017.3
20260502070037 17 141 8.0 27.4 0.00 0.00 0.00 50 1017.4
20260502070023 17 141 9.7 27.4 0.00 0.00 0.00 50 1017.0
20260502065509 16 180 11.3 27.4 0.00 0.00 0.00 50 1017.4
20260502065013 16 171 8.0 22.5 0.00 0.00 0.00 51 1017.4
20260502064521 16 227 11.3 24.1 0.00 0.00 0.00 51 1017.4
20260502064010 16 187 9.7 24.1 0.00 0.00 0.00 51 1017.4
20260502063513 16 203 8.0 17.7 0.00 0.00 0.00 52 1017.4
20260502063021 16 126 8.0 17.7 0.00 0.00 0.00 53 1017.4
20260502062506 15 176 9.7 17.7 0.00 0.00 0.00 54 1017.3
20260502062004 15 167 8.0 17.7 0.00 0.00 0.00 54 1017.3
20260502061511 15 146 11.3 17.7 0.00 0.00 0.00 54 1017.2
20260502061503 15 146 11.3 17.7 0.00 0.00 0.00 54 1016.8
20260502061005 15 167 4.8 16.1 0.00 0.00 0.00 55 1017.3
20260502060506 15 143 8.0 19.3 0.00 0.00 0.00 55 1017.3
20260502060018 15 180 8.0 19.3 0.00 0.00 0.00 55 1017.3
20260502060007 15 180 8.0 19.3 0.00 0.00 0.00 55 1017.0
20260502055503 14 131 9.7 17.7 0.00 0.00 0.00 56 1017.3
20260502055008 14 215 6.4 14.5 0.00 0.00 0.00 57 1017.4
20260502054509 13 168 6.4 14.5 0.00 0.00 0.00 57 1017.4
20260502054006 13 178 4.8 14.5 0.00 0.00 0.00 58 1017.4
20260502053505 13 138 6.4 16.1 0.00 0.00 0.00 58 1017.3
20260502053017 13 152 6.4 16.1 0.00 0.00 0.00 58 1017.4
20260502052514 13 137 6.4 16.1 0.00 0.00 0.00 59 1017.3
20260502052007 13 158 8.0 16.1 0.00 0.00 0.00 59 1017.4
20260502051519 13 145 8.0 16.1 0.00 0.00 0.00 59 1017.4
20260502051006 12 144 9.7 16.1 0.00 0.00 0.00 59 1017.3
20260502050504 12 136 8.0 14.5 0.00 0.00 0.00 60 1017.4
20260502050010 12 144 8.0 14.5 0.00 0.00 0.00 60 1017.3
20260502045503 12 126 8.0 16.1 0.00 0.00 0.00 60 1017.3
20260502045005 12 142 11.3 16.1 0.00 0.00 0.00 60 1017.2
20260502044512 12 133 11.3 14.5 0.00 0.00 0.00 60 1017.0
20260502044510 12 133 11.3 14.5 0.00 0.00 0.00 60 1017.3
20260502044005 12 137 9.7 14.5 0.00 0.00 0.00 60 1017.3
20260502043510 12 142 8.0 12.9 0.00 0.00 0.00 60 1017.4
20260502043018 12 138 6.4 12.9 0.00 0.00 0.00 60 1017.1
20260502043014 12 138 6.4 12.9 0.00 0.00 0.00 60 1017.3
20260502042508 12 138 8.0 12.9 0.00 0.00 0.00 60 1017.4
20260502042007 12 163 6.4 12.9 0.00 0.00 0.00 60 1017.4
20260502041531 12 150 6.4 12.9 0.00 0.00 0.00 59 1017.4
20260502041521 12 150 6.4 12.9 0.00 0.00 0.00 59 1017.2
20260502041008 12 138 8.0 12.9 0.00 0.00 0.00 59 1017.4
20260502040509 12 138 9.7 12.9 0.00 0.00 0.00 59 1017.5
20260502040043 12 146 8.0 12.9 0.00 0.00 0.00 59 1017.5
20260502040020 12 146 8.0 12.9 0.00 0.00 0.00 59 1017.2
20260502035503 12 136 8.0 12.9 0.00 0.00 0.00 59 1017.6
20260502035003 12 142 8.0 12.9 0.00 0.00 0.00 59 1017.6
20260502034510 12 154 8.0 12.9 0.00 0.00 0.00 59 1017.4
20260502034506 12 154 8.0 12.9 0.00 0.00 0.00 59 1017.7
20260502034007 12 178 4.8 11.3 0.00 0.00 0.00 58 1017.7
20260502033505 12 154 4.8 11.3 0.00 0.00 0.00 58 1017.7
20260502033025 12 142 4.8 12.9 0.00 0.00 0.00 58 1017.7
20260502033013 12 142 4.8 12.9 0.00 0.00 0.00 58 1017.5
20260502032506 13 141 8.0 12.9 0.00 0.00 0.00 58 1017.6
20260502032007 13 136 8.0 12.9 0.00 0.00 0.00 57 1017.7
20260502031517 13 141 6.4 12.9 0.00 0.00 0.00 57 1017.8
20260502031006 13 130 8.0 12.9 0.00 0.00 0.00 56 1017.7
20260502030510 13 144 6.4 12.9 0.00 0.00 0.00 56 1017.8
20260502030026 13 140 8.0 12.9 0.00 0.00 0.00 56 1017.8
20260502030024 13 140 8.0 12.9 0.00 0.00 0.00 56 1017.5
20260502025507 13 144 8.0 12.9 0.00 0.00 0.00 56 1017.9
20260502025016 13 170 8.0 12.9 0.00 0.00 0.00 55 1017.9
20260502024526 13 157 6.4 12.9 0.00 0.00 0.00 55 1017.9
20260502024523 13 157 6.4 12.9 0.00 0.00 0.00 55 1017.6
20260502024006 13 143 6.4 12.9 0.00 0.00 0.00 55 1017.9
20260502023503 13 145 6.4 12.9 0.00 0.00 0.00 55 1017.9
20260502023020 13 153 8.0 11.3 0.00 0.00 0.00 54 1017.9
20260502022504 13 144 8.0 12.9 0.00 0.00 0.00 54 1017.9
20260502022005 13 140 6.4 12.9 0.00 0.00 0.00 54 1017.9
20260502021511 14 187 6.4 12.9 0.00 0.00 0.00 53 1018.0
20260502021008 14 144 6.4 16.1 0.00 0.00 0.00 53 1018.0
20260502020506 14 141 9.7 16.1 0.00 0.00 0.00 53 1018.1
20260502020017 14 134 9.7 16.1 0.00 0.00 0.00 53 1018.2
20260502015509 14 138 8.0 14.5 0.00 0.00 0.00 52 1018.2
20260502015008 14 141 6.4 12.9 0.00 0.00 0.00 52 1018.3
20260502014529 14 138 8.0 14.5 0.00 0.00 0.00 52 1018.3
20260502014522 14 138 8.0 14.5 0.00 0.00 0.00 52 1018.0
20260502014006 14 134 8.0 14.5 0.00 0.00 0.00 51 1018.3
20260502013510 15 133 8.0 14.5 0.00 0.00 0.00 51 1018.4
20260502013025 15 138 8.0 14.5 0.00 0.00 0.00 51 1018.5
20260502012503 15 142 8.0 14.5 0.00 0.00 0.00 50 1018.5
20260502012006 15 142 6.4 16.1 0.00 0.00 0.00 50 1018.6
20260502011514 15 130 9.7 16.1 0.00 0.00 0.00 50 1018.7
20260502011007 15 144 8.0 12.9 0.00 0.00 0.00 50 1018.8
20260502010506 15 139 6.4 12.9 0.00 0.00 0.00 49 1018.8
20260502010016 15 148 6.4 14.5 0.00 0.00 0.00 49 1018.8
20260502005506 15 144 6.4 14.5 0.00 0.00 0.00 49 1018.9
20260502005008 15 136 8.0 14.5 0.00 0.00 0.00 49 1018.9
20260502004525 15 155 9.7 17.7 0.00 0.00 0.00 48 1018.9
20260502004007 15 132 9.7 17.7 0.00 0.00 0.00 48 1018.9
20260502003509 15 130 9.7 16.1 0.00 0.00 0.00 48 1019.1
20260502003024 15 124 9.7 16.1 0.00 0.00 0.00 48 1019.1
20260502002513 15 140 9.7 14.5 0.00 0.00 0.00 48 1019.1
20260502002015 15 144 8.0 16.1 0.00 0.00 0.00 47 1019.2
20260502001537 16 144 8.0 16.1 0.00 0.00 0.00 47 1019.2
20260502001525 16 144 8.0 16.1 0.00 0.00 0.00 47 1018.8
20260502001006 16 142 11.3 17.7 0.00 0.00 0.00 47 1019.2
20260502000506 16 140 11.3 17.7 0.00 0.00 0.00 46 1019.3
20260502000017 16 132 11.3 16.1 0.00 0.00 0.00 46 1018.9
20260502000013 16 132 11.3 16.1 0.00 0.00 0.00 46 1019.3
20260501235508 16 130 8.0 16.1 0.00 0.00 0.00 46 1019.3
20260501235008 16 134 8.0 17.7 0.00 0.00 0.00 46 1019.4
20260501234520 16 148 9.7 17.7 0.00 0.00 0.00 46 1019.4
20260501234008 16 131 8.0 14.5 0.00 0.00 0.00 46 1019.3
20260501233506 16 128 8.0 14.5 0.00 0.00 0.00 46 1019.4
20260501233022 16 128 8.0 12.9 0.00 0.00 0.00 46 1019.4
20260501233016 16 128 8.0 12.9 0.00 0.00 0.00 46 1019.1
20260501232517 16 122 8.0 12.9 0.00 0.00 0.00 46 1019.5
20260501232009 16 131 8.0 12.9 0.00 0.00 0.00 46 1019.5
20260501231529 16 138 6.4 11.3 0.00 0.00 0.00 46 1019.5
20260501231009 16 136 4.8 12.9 0.00 0.00 0.00 46 1019.5
20260501230513 16 129 6.4 12.9 0.00 0.00 0.00 46 1019.5
20260501230008 16 124 6.4 11.3 0.00 0.00 0.00 46 1019.2
20260501225506 16 125 8.0 12.9 0.00 0.00 0.00 46 1019.6
20260501225008 16 139 6.4 12.9 0.00 0.00 0.00 46 1019.6
20260501224519 16 132 8.0 12.9 0.00 0.00 0.00 46 1019.6
20260501224507 16 132 8.0 12.9 0.00 0.00 0.00 46 1019.3
20260501224006 16 121 8.0 14.5 0.00 0.00 0.00 46 1019.7
20260501223506 16 130 8.0 14.5 0.00 0.00 0.00 46 1019.7
20260501223021 16 132 8.0 12.9 0.00 0.00 0.00 46 1019.7
20260501223006 16 132 8.0 12.9 0.00 0.00 0.00 46 1019.5
20260501222509 16 136 8.0 12.9 0.00 0.00 0.00 46 1019.8
20260501222011 16 129 8.0 11.3 0.00 0.00 0.00 46 1019.8
20260501221525 16 139 4.8 11.3 0.00 0.00 0.00 46 1019.8
20260501221504 16 141 4.8 11.3 0.00 0.00 0.00 46 1019.5
20260501221010 16 136 6.4 11.3 0.00 0.00 0.00 46 1019.9
20260501220510 16 145 4.8 11.3 0.00 0.00 0.00 46 1019.9
20260501220026 16 131 4.8 8.0 0.00 0.00 0.00 46 1019.9
20260501215510 16 134 6.4 8.0 0.00 0.00 0.00 46 1019.9
20260501215011 16 141 4.8 8.0 0.00 0.00 0.00 46 1019.9
20260501214526 16 135 4.8 8.0 0.00 0.00 0.00 46 1019.9
20260501214512 16 135 4.8 8.0 0.00 0.00 0.00 46 1019.6
20260501214007 16 138 4.8 8.0 0.00 0.00 0.00 46 1019.9
20260501213508 16 140 4.8 8.0 0.00 0.00 0.00 46 1019.9
20260501213022 17 148 4.8 8.0 0.00 0.00 0.00 46 1019.9
20260501213014 17 148 4.8 8.0 0.00 0.00 0.00 46 1019.7
20260501212509 17 142 4.8 8.0 0.00 0.00 0.00 46 1019.9
20260501212006 17 131 4.8 8.0 0.00 0.00 0.00 46 1019.8
20260501211524 17 135 4.8 8.0 0.00 0.00 0.00 45 1019.9
20260501211510 17 135 4.8 8.0 0.00 0.00 0.00 45 1019.7
20260501211014 17 137 4.8 8.0 0.00 0.00 0.00 45 1019.9
20260501210511 17 141 4.8 8.0 0.00 0.00 0.00 46 1020.0
20260501210024 17 139 4.8 6.4 0.00 0.00 0.00 45 1020.0
20260501210006 17 139 4.8 6.4 0.00 0.00 0.00 45 1019.7
20260501205510 18 132 3.2 6.4 0.00 0.00 0.00 45 1020.0
20260501205010 18 132 4.8 6.4 0.00 0.00 0.00 44 1020.0
20260501204528 18 131 3.2 6.4 0.00 0.00 0.00 44 1020.0
20260501204510 18 131 3.2 6.4 0.00 0.00 0.00 44 1019.8
20260501204012 18 132 4.8 6.4 0.00 0.00 0.00 43 1020.0
20260501203510 18 132 3.2 6.4 0.00 0.00 0.00 43 1020.1
20260501203028 18 131 3.2 6.4 0.00 0.00 0.00 43 1020.1
20260501203013 18 131 3.2 6.4 0.00 0.00 0.00 43 1019.9
20260501202508 18 131 3.2 6.4 0.00 0.00 0.00 43 1020.1
20260501202008 18 131 1.6 4.8 0.00 0.00 0.00 43 1020.1
20260501201518 19 131 1.6 4.8 0.00 0.00 0.00 42 1020.2
20260501201512 19 131 1.6 4.8 0.00 0.00 0.00 42 1019.9
20260501201015 19 131 1.6 4.8 0.00 0.00 0.00 42 1020.2
20260501200503 19 131 1.6 4.8 0.00 0.00 0.00 41 1020.2